Weather History for Huntsville Madison, AL

Change the Weather History Date:

Tuesday, August 6, 2013

  Actual Average (KHSV) Record (KHSV)
Temperature  
Mean Temperature 74 °F 81 °F  
Max Temperature 80 °F 91 °F 106 °F (1930)
Min Temperature 69 °F 70 °F 55 °F (1948)
Degree Days  
Heating Degree Days 0 0  
Month to date heating degree days 0  
Since 1 June heating degree days 1  
Since 1 July heating degree days 0  
Cooling Degree Days 10 16  
Month to date cooling degree days 96  
Year to date cooling degree days 1221  
Since 1 June cooling degree days 958  
Growing Degree Days 24 (Base 50)    
Moisture  
Dew Point 68 °F    
Average Humidity 81    
Maximum Humidity 94    
Minimum Humidity 65    
Precipitation  
Precipitation 0.89 in 0.12 in 1.60 in (1931)
Month to date precipitation 0.75  
Year to date precipitation 33.46  
Snow  
Snow 0.00 in - - ()
Month to date snowfall  
Since 1 June snowfall  
Since 1 July snowfall  
Snow Depth -    
Sea Level Pressure  
Sea Level Pressure 29.99 in    
Wind  
Wind Speed 1 mph (South)    
Max Wind Speed 9 mph    
Max Gust Speed -    
Visibility 9 miles    
Events Rain , Thunderstorm    
T = Trace of Precipitation, MM = Missing Value Source: NWS Daily Summary

Daily Weather History Graph

Daily Weather History Graph

Search for Another Location

Airport:

Trip Planner

Search our weather history database for the weather conditions in past years. The results will help you decide how hot, cold, wet, or windy it might be!

Date:

Astronomy

Aug. 06, 2013 Rise Set
Actual Time 5:59 AM CDT 7:43 PM CDT
Civil Twilight 5:32 AM CDT 8:11 PM CDT
Nautical Twilight 4:59 AM CDT 8:43 PM CDT
Astronomical Twilight 4:24 AM CDT 9:18 PM CDT
Moon 5:48 AM CDT (8/6) 7:21 PM CDT (8/6)
Length of Visible Light 14h 38m
Length of Day
13h 43m
Waning Crescent, 0% of the Moon is Illuminated
Aug 6
Waning Crescent
Aug 6
New
Aug 14
First Quarter
Aug 20
Full
Aug 28
Last Quarter

Hourly Weather History & Observations

Time (CDT) Temp. Heat Index Dew Point Humidity Pressure Visibility Wind Dir Wind Speed Gust Speed Precip Events Conditions
12:15 AM 71.6 °F - 66.2 °F 83% 30.00 in 10.0 mi Calm Calm - N/A   Scattered Clouds
12:35 AM 71.6 °F - 64.4 °F 78% 29.99 in 10.0 mi Calm Calm - N/A   Clear
12:55 AM 69.8 °F - 64.4 °F 83% 29.98 in 10.0 mi Calm Calm - N/A   Clear
1:15 AM 69.8 °F - 64.4 °F 83% 29.98 in 10.0 mi Calm Calm - N/A   Clear
1:35 AM 69.8 °F - 64.4 °F 83% 29.98 in 10.0 mi Calm Calm - N/A   Scattered Clouds
1:55 AM 69.8 °F - 64.4 °F 83% 29.97 in 10.0 mi Calm Calm - N/A   Scattered Clouds
2:15 AM 69.8 °F - 64.4 °F 83% 29.97 in 10.0 mi Calm Calm - N/A   Mostly Cloudy
2:35 AM 69.8 °F - 64.4 °F 83% 29.97 in 10.0 mi Calm Calm - N/A   Overcast
2:55 AM 69.8 °F - 64.4 °F 83% 29.97 in 10.0 mi Calm Calm - N/A   Overcast
3:15 AM 69.8 °F - 64.4 °F 83% 29.97 in 10.0 mi Calm Calm - N/A   Overcast
3:35 AM 69.8 °F - 64.4 °F 83% 29.97 in 10.0 mi Calm Calm - N/A   Overcast
3:55 AM 69.8 °F - 64.4 °F 83% 29.96 in 10.0 mi Calm Calm - N/A   Overcast
4:15 AM 69.8 °F - 64.4 °F 83% 29.96 in 10.0 mi Calm Calm - N/A   Mostly Cloudy
4:35 AM 69.8 °F - 64.4 °F 83% 29.97 in 10.0 mi Calm Calm - N/A   Mostly Cloudy
4:55 AM 69.8 °F - 64.4 °F 83% 29.97 in 10.0 mi Calm Calm - N/A   Overcast
5:15 AM 69.8 °F - 64.4 °F 83% 29.98 in 10.0 mi Calm Calm - N/A   Mostly Cloudy
5:35 AM 69.8 °F - 64.4 °F 83% 29.98 in 10.0 mi Calm Calm - N/A Thunderstorm Overcast
5:55 AM 69.8 °F - 64.4 °F 83% 29.98 in 10.0 mi Calm Calm - N/A   Mostly Cloudy
6:15 AM 69.8 °F - 64.4 °F 83% 29.99 in 10.0 mi Calm Calm - N/A Thunderstorm Mostly Cloudy
6:35 AM 69.8 °F - 64.4 °F 83% 30.01 in 10.0 mi Calm Calm - N/A Rain , Thunderstorm Light Thunderstorms and Rain
6:55 AM 69.8 °F - 64.4 °F 83% 30.01 in 0.8 mi WNW 4.6 mph - 0.01 in Rain , Thunderstorm Thunderstorms and Rain
7:15 AM 69.8 °F - 66.2 °F 88% 30.02 in 1.2 mi West 6.9 mph - 0.22 in Rain , Thunderstorm Heavy Thunderstorms and Rain
7:35 AM 69.8 °F - 66.2 °F 88% 30.01 in 0.8 mi East 3.5 mph - 0.67 in Rain , Thunderstorm Heavy Thunderstorms and Rain
7:55 AM 71.6 °F - 68.0 °F 88% 30.03 in 3.0 mi SSW 3.5 mph - 0.74 in Rain , Thunderstorm Heavy Thunderstorms and Rain
8:15 AM 69.8 °F - 68.0 °F 94% 30.02 in 5.0 mi SE 4.6 mph - 0.10 in Rain , Thunderstorm Light Thunderstorms and Rain
8:35 AM 69.8 °F - 66.2 °F 88% 30.02 in 10.0 mi Calm Calm - 0.10 in Thunderstorm Overcast
8:55 AM 69.8 °F - 68.0 °F 94% 30.03 in 4.0 mi SE 3.5 mph - 0.13 in Rain , Thunderstorm Light Thunderstorms and Rain
9:15 AM 71.6 °F - 68.0 °F 88% 30.02 in 7.0 mi SE 5.8 mph - N/A Thunderstorm Thunderstorm
9:35 AM 71.6 °F - 68.0 °F 88% 30.03 in 10.0 mi SSE 3.5 mph - N/A Thunderstorm Mostly Cloudy
9:55 AM 73.4 °F - 68.0 °F 83% 30.02 in 10.0 mi South 3.5 mph - N/A Thunderstorm Overcast
10:15 AM 73.4 °F - 68.0 °F 83% 30.02 in 10.0 mi South 3.5 mph - N/A Thunderstorm Thunderstorm
10:35 AM 75.2 °F - 69.8 °F 83% 30.03 in 10.0 mi SSE 4.6 mph - N/A Thunderstorm Mostly Cloudy
10:55 AM 75.2 °F - 69.8 °F 83% 30.03 in 10.0 mi SE 3.5 mph - N/A Thunderstorm Thunderstorm
11:15 AM 77.0 °F - 69.8 °F 78% 30.02 in 10.0 mi SE 3.5 mph - N/A   Scattered Clouds
11:35 AM 77.0 °F - 69.8 °F 78% 30.02 in 10.0 mi South 8.1 mph - N/A Thunderstorm Scattered Clouds
11:55 AM 78.8 °F - 68.0 °F 69% 30.02 in 10.0 mi South 9.2 mph - N/A   Scattered Clouds
12:15 PM 78.8 °F - 69.8 °F 74% 30.01 in 10.0 mi SSW 8.1 mph - N/A   Scattered Clouds
12:35 PM 78.8 °F - 68.0 °F 69% 30.01 in 10.0 mi SSW 5.8 mph - N/A   Clear
12:55 PM 78.8 °F - 68.0 °F 69% 30.01 in 10.0 mi SSW 5.8 mph - N/A   Clear
1:15 PM 80.6 °F 83.2 °F 68.0 °F 65% 30.01 in 10.0 mi SW 6.9 mph - N/A   Scattered Clouds
1:35 PM 80.6 °F 83.2 °F 68.0 °F 65% 30.01 in 10.0 mi South 5.8 mph - N/A   Mostly Cloudy
1:55 PM 80.6 °F 83.2 °F 68.0 °F 65% 30.01 in 10.0 mi South 4.6 mph - N/A   Overcast
2:15 PM 78.8 °F - 68.0 °F 69% 30.00 in 10.0 mi Calm Calm - N/A   Overcast
2:35 PM 78.8 °F - 69.8 °F 74% 30.01 in 10.0 mi Calm Calm - N/A Thunderstorm Overcast
2:55 PM 78.8 °F - 69.8 °F 74% 30.00 in 10.0 mi West 4.6 mph - N/A Thunderstorm Overcast
3:15 PM 78.8 °F - 69.8 °F 74% 29.99 in 10.0 mi WNW 3.5 mph - N/A Rain , Thunderstorm Light Thunderstorms and Rain
3:35 PM 78.8 °F - 69.8 °F 74% 29.99 in 10.0 mi West 3.5 mph - N/A   Scattered Clouds
3:55 PM 78.8 °F - 68.0 °F 69% 29.98 in 10.0 mi Calm Calm - N/A Thunderstorm Scattered Clouds
4:15 PM 78.8 °F - 71.6 °F 78% 29.99 in 10.0 mi WSW 4.6 mph - N/A Rain Light Rain
4:35 PM 78.8 °F - 71.6 °F 78% 29.99 in 10.0 mi Calm Calm - 0.01 in Rain Light Rain
4:55 PM 78.8 °F - 71.6 °F 78% 29.98 in 10.0 mi Calm Calm - 0.01 in   Light Drizzle
5:15 PM 78.8 °F - 71.6 °F 78% 29.98 in 10.0 mi Calm Calm - N/A   Clear
5:35 PM 78.8 °F - 71.6 °F 78% 29.98 in 10.0 mi Calm Calm - N/A   Scattered Clouds
5:55 PM 78.8 °F - 71.6 °F 78% 29.97 in 10.0 mi SSE 3.5 mph - N/A   Clear
6:15 PM 78.8 °F - 71.6 °F 78% 29.98 in 10.0 mi SSW 5.8 mph - N/A Rain Light Rain
6:35 PM 77.0 °F - 71.6 °F 83% 29.98 in 10.0 mi Calm Calm - N/A   Clear
6:55 PM 77.0 °F - 71.6 °F 83% 29.98 in 10.0 mi Calm Calm - N/A   Clear
7:15 PM 77.0 °F - 71.6 °F 83% 29.99 in 10.0 mi WSW 3.5 mph - N/A   Clear
7:35 PM 77.0 °F - 71.6 °F 83% 29.99 in 10.0 mi Calm Calm - N/A   Clear
7:55 PM 77.0 °F - 71.6 °F 83% 29.98 in 7.0 mi Calm Calm - N/A Rain Light Rain
8:15 PM 75.2 °F - 71.6 °F 89% 29.97 in 7.0 mi ESE 3.5 mph - N/A   Scattered Clouds
8:35 PM 75.2 °F - 71.6 °F 89% 29.97 in 7.0 mi Calm Calm - N/A   Scattered Clouds
8:55 PM 77.0 °F - 71.6 °F 83% 29.98 in 7.0 mi Calm Calm - N/A   Mostly Cloudy
9:15 PM 75.2 °F - 71.6 °F 89% 29.98 in 7.0 mi Calm Calm - N/A   Mostly Cloudy
9:35 PM 77.0 °F - 71.6 °F 83% 29.99 in 10.0 mi SE 3.5 mph - N/A   Scattered Clouds
9:55 PM 75.2 °F - 71.6 °F 89% 29.98 in 10.0 mi Calm Calm - N/A   Scattered Clouds
10:15 PM 75.2 °F - 71.6 °F 89% 29.98 in 10.0 mi Calm Calm - N/A   Mostly Cloudy
10:35 PM 77.0 °F - 69.8 °F 78% 29.99 in 10.0 mi Calm Calm - N/A   Overcast
10:55 PM 73.4 °F - 69.8 °F 88% 29.99 in 10.0 mi Calm Calm - N/A   Overcast
11:15 PM 73.4 °F - 69.8 °F 88% 29.99 in 7.0 mi Calm Calm - N/A   Mostly Cloudy
11:35 PM 73.4 °F - 69.8 °F 88% 29.99 in 10.0 mi Calm Calm - N/A   Scattered Clouds
11:55 PM 73.4 °F - 69.8 °F 88% 29.99 in 10.0 mi Calm Calm - N/A   Scattered Clouds